Location: Hillern
(53.0557°N, 9.8577°E)
Time: 23:52:00
(UTC+00:00)

Cosmos 1538 Rocket - Pass Details

Date: 19 May 2025
Orbit: 749 x 788 km, 74.0° (Epoch: 15 June)

Event Time Altitude Azimuth Distance (km) Brightness Sun altitude
Exits shadow 22:50:40 27° 195° (SSW) 1,436 4.9 -16.7°
Maximum altitude 22:53:34 78° 113° (ESE) 774 3.9 -16.8°
Drops below altitude 10° 22:58:44 10° 28° (NNE) 2,281 7.3 -16.9°
Sets 23:01:06 0° 27° (NNE) 3,210 8.3 -16.9°
